BOX592 RJAA-VHHH

Flight info

Callsign BOX592
Flight time 4h 2m
Altitude 38000
Route PIGOK Y50 IGMON A1 ELATO V522 ABBEY
Aircraft B77L/H-SDE1E2E3FGHIJ2J3J4J5M1RWXY/LB1D1

Departure

Time 2026-05-06 21:40
Airport Narita International Airport (RJAA)

Arrival

Time 2026-05-07 01:43
Airport Hong Kong International Airport (VHHH)
Time Latitude Longitude Altitude Speed Heading
2026-05-06 21:00 35.76975 140.37657 137 ft 0 kts 60°
2026-05-06 21:30 35.76971 140.37648 136 ft 2 kts 60°
2026-05-06 21:30 35.76964 140.37633 136 ft 2 kts 59°
2026-05-06 21:30 35.76957 140.37616 135 ft 2 kts 75°
2026-05-06 21:31 35.76955 140.37598 135 ft 2 kts 92°
2026-05-06 21:31 35.76957 140.37579 135 ft 2 kts 108°
2026-05-06 21:31 35.76963 140.37563 134 ft 2 kts 124°
2026-05-06 21:31 35.76973 140.37549 134 ft 2 kts 140°
2026-05-06 21:32 35.76980 140.37543 134 ft 0 kts 150°
2026-05-06 21:32 35.76983 140.37541 134 ft 0 kts 150°
2026-05-06 21:34 35.76982 140.37541 134 ft 1 kts 150°
2026-05-06 21:35 35.76952 140.37564 134 ft 8 kts 148°
2026-05-06 21:35 35.76892 140.37590 135 ft 8 kts 187°
2026-05-06 21:35 35.76857 140.37534 134 ft 10 kts 281°
2026-05-06 21:35 35.76915 140.37463 133 ft 11 kts 327°
2026-05-06 21:36 35.76984 140.37413 133 ft 11 kts 329°
2026-05-06 21:36 35.77050 140.37364 133 ft 10 kts 329°
2026-05-06 21:36 35.77125 140.37311 132 ft 13 kts 329°
2026-05-06 21:36 35.77206 140.37253 131 ft 13 kts 328°
2026-05-06 21:37 35.77285 140.37193 130 ft 13 kts 329°
2026-05-06 21:37 35.77363 140.37137 130 ft 12 kts 329°
2026-05-06 21:37 35.77440 140.37083 130 ft 12 kts 330°
2026-05-06 21:37 35.77494 140.37015 130 ft 10 kts 282°
2026-05-06 21:38 35.77475 140.36937 132 ft 8 kts 240°
2026-05-06 21:38 35.77449 140.36882 133 ft 6 kts 235°
2026-05-06 21:38 35.77422 140.36856 134 ft 4 kts 190°
2026-05-06 21:38 35.77388 140.36867 134 ft 5 kts 156°
2026-05-06 21:39 35.77370 140.36879 134 ft 0 kts 150°
2026-05-06 21:39 35.77351 140.36891 134 ft 8 kts 150°
2026-05-06 21:39 35.77104 140.37068 135 ft 81 kts 149°
2026-05-06 21:39 35.76371 140.37599 139 ft 158 kts 149°
2026-05-06 21:40 35.75318 140.38344 615 ft 181 kts 149°
2026-05-06 21:40 35.74279 140.39099 1729 ft 175 kts 151°
2026-05-06 21:40 35.73274 140.39841 2546 ft 170 kts 152°
2026-05-06 21:40 35.72249 140.40584 3139 ft 171 kts 153°
2026-05-06 21:41 35.71195 140.41344 3607 ft 181 kts 153°
2026-05-06 21:41 35.70063 140.42157 3997 ft 198 kts 153°
2026-05-06 21:41 35.68821 140.43048 4415 ft 215 kts 153°
2026-05-06 21:41 35.67486 140.44006 4885 ft 231 kts 153°
2026-05-06 21:42 35.66049 140.45038 5358 ft 247 kts 153°
2026-05-06 21:42 35.64507 140.46146 5851 ft 264 kts 153°
2026-05-06 21:42 35.62911 140.47296 6518 ft 272 kts 153°
2026-05-06 21:42 35.61278 140.48474 7298 ft 275 kts 153°
2026-05-06 21:43 35.59611 140.49675 7976 ft 282 kts 152°
2026-05-06 21:43 35.57911 140.50905 8715 ft 286 kts 152°
2026-05-06 21:43 35.56192 140.52145 9445 ft 290 kts 152°
2026-05-06 21:43 35.54441 140.53398 10067 ft 296 kts 152°
2026-05-06 21:44 35.52595 140.54556 10539 ft 306 kts 161°
2026-05-06 21:44 35.50509 140.55392 10895 ft 321 kts 170°
2026-05-06 21:44 35.48243 140.55797 11278 ft 334 kts 180°
2026-05-06 21:44 35.45889 140.55704 11702 ft 347 kts 190°
2026-05-06 21:45 35.43460 140.55048 12180 ft 359 kts 200°
2026-05-06 21:45 35.41155 140.53822 12719 ft 369 kts 211°
2026-05-06 21:45 35.39048 140.52006 13621 ft 370 kts 223°
2026-05-06 21:45 35.37309 140.49762 14646 ft 368 kts 233°
2026-05-06 21:46 35.35925 140.47137 15680 ft 370 kts 242°
2026-05-06 21:46 35.34901 140.44253 16601 ft 374 kts 251°
2026-05-06 21:46 35.34279 140.41203 17551 ft 378 kts 259°
2026-05-06 21:46 35.34091 140.38010 18504 ft 381 kts 266°
2026-05-06 21:47 35.34029 140.34727 19264 ft 388 kts 266°
2026-05-06 21:47 35.33919 140.31415 19978 ft 396 kts 265°
2026-05-06 21:47 35.33765 140.28036 20797 ft 401 kts 265°
2026-05-06 21:47 35.33585 140.24637 21578 ft 406 kts 264°
2026-05-06 21:48 35.33385 140.21214 22271 ft 411 kts 264°
2026-05-06 21:48 35.33169 140.17731 23058 ft 414 kts 264°
2026-05-06 21:48 35.32940 140.14175 23793 ft 419 kts 264°
2026-05-06 21:48 35.32706 140.10641 24462 ft 424 kts 264°
2026-05-06 21:49 35.32464 140.07051 25260 ft 427 kts 264°
2026-05-06 21:49 35.32217 140.03444 25987 ft 431 kts 264°
2026-05-06 21:49 35.31963 139.99773 26643 ft 437 kts 264°
2026-05-06 21:49 35.31691 139.96065 27313 ft 442 kts 262°
2026-05-06 21:50 35.31103 139.92387 28079 ft 445 kts 255°
2026-05-06 21:50 35.30102 139.88768 28714 ft 451 kts 250°
2026-05-06 21:50 35.28979 139.85184 29414 ft 455 kts 250°
2026-05-06 21:50 35.27836 139.81558 30174 ft 459 kts 250°
2026-05-06 21:51 35.26688 139.77928 31001 ft 459 kts 250°
2026-05-06 21:51 35.25559 139.74361 31941 ft 456 kts 250°
2026-05-06 21:51 35.24417 139.70758 32984 ft 449 kts 251°
2026-05-06 21:51 35.23313 139.67278 34112 ft 442 kts 250°
2026-05-06 21:52 35.22218 139.63831 35544 ft 429 kts 250°
2026-05-06 21:52 35.21158 139.60498 36697 ft 420 kts 250°
2026-05-06 21:52 35.20096 139.57159 37272 ft 421 kts 250°
2026-05-06 21:52 35.19042 139.53833 37697 ft 423 kts 252°
2026-05-06 21:53 35.18212 139.50368 38026 ft 423 kts 258°
2026-05-06 21:53 35.17768 139.46864 38004 ft 418 kts 265°
2026-05-06 21:53 35.17451 139.39887 37999 ft 413 kts 266°
2026-05-06 21:54 35.17144 139.32840 38017 ft 413 kts 265°
2026-05-06 21:54 35.16823 139.25825 37997 ft 417 kts 265°
2026-05-06 21:55 35.16491 139.18739 38018 ft 417 kts 265°
2026-05-06 21:55 35.16157 139.11752 38052 ft 416 kts 266°
2026-05-06 21:56 35.15814 139.04662 38047 ft 416 kts 265°
2026-05-06 21:56 35.15464 138.97556 38050 ft 422 kts 266°
2026-05-06 21:57 35.15107 138.90379 38034 ft 423 kts 265°
2026-05-06 21:57 35.14748 138.83255 38056 ft 421 kts 265°
2026-05-06 21:58 35.14384 138.76115 38035 ft 423 kts 265°
2026-05-06 21:58 35.14015 138.68964 38028 ft 421 kts 265°
2026-05-06 21:59 35.13644 138.61839 38012 ft 421 kts 264°
2026-05-06 21:59 35.13266 138.54697 38011 ft 425 kts 265°
2026-05-06 22:00 35.12883 138.47517 38030 ft 424 kts 265°
2026-05-06 22:00 35.12496 138.40352 38043 ft 429 kts 265°
2026-05-06 22:01 35.12100 138.33081 38013 ft 427 kts 265°
2026-05-06 22:01 35.11703 138.25888 38039 ft 423 kts 265°
2026-05-06 22:02 35.11299 138.18652 38045 ft 428 kts 265°
2026-05-06 22:02 35.10894 138.11473 38062 ft 429 kts 264°
2026-05-06 22:03 35.10480 138.04196 38084 ft 429 kts 265°
2026-05-06 22:03 35.10064 137.96977 38051 ft 430 kts 265°
2026-05-06 22:04 35.09642 137.89719 38055 ft 433 kts 264°
2026-05-06 22:04 35.09209 137.82367 38059 ft 434 kts 265°
2026-05-06 22:05 35.08775 137.75047 38049 ft 434 kts 264°
2026-05-06 22:05 35.08303 137.67717 38028 ft 433 kts 261°
2026-05-06 22:06 35.06783 137.60640 38048 ft 436 kts 251°
2026-05-06 22:06 35.04780 137.53661 38039 ft 438 kts 251°
2026-05-06 22:07 35.02778 137.46713 38043 ft 434 kts 251°
2026-05-06 22:07 35.00779 137.39725 38048 ft 440 kts 251°
2026-05-06 22:08 34.98780 137.32726 38047 ft 435 kts 251°
2026-05-06 22:08 34.96779 137.25745 38037 ft 442 kts 251°
2026-05-06 22:09 34.94732 137.18616 38006 ft 443 kts 250°
2026-05-06 22:09 34.92712 137.11604 38024 ft 441 kts 251°
2026-05-06 22:10 34.90678 137.04564 38043 ft 438 kts 250°
2026-05-06 22:10 34.88658 136.97588 38094 ft 439 kts 251°
2026-05-06 22:11 34.86622 136.90572 38071 ft 440 kts 251°
2026-05-06 22:11 34.84251 136.83731 38067 ft 442 kts 245°
2026-05-06 22:12 34.81652 136.76982 38052 ft 443 kts 245°
2026-05-06 22:12 34.79046 136.70226 38088 ft 441 kts 245°
2026-05-06 22:13 34.76448 136.63504 38073 ft 442 kts 245°
2026-05-06 22:13 34.73822 136.56718 38029 ft 442 kts 245°
2026-05-06 22:14 34.71229 136.50035 38090 ft 437 kts 245°
2026-05-06 22:14 34.68622 136.43327 38079 ft 435 kts 245°
2026-05-06 22:15 34.66030 136.36670 38036 ft 439 kts 245°
2026-05-06 22:15 34.63419 136.29977 38032 ft 440 kts 244°
2026-05-06 22:16 34.60824 136.23341 38058 ft 439 kts 244°
2026-05-06 22:16 34.58183 136.16632 38047 ft 438 kts 243°
2026-05-06 22:17 34.55355 136.10043 38030 ft 442 kts 242°
2026-05-06 22:17 34.52536 136.03503 38056 ft 437 kts 243°
2026-05-06 22:18 34.49721 135.96970 38046 ft 438 kts 242°
2026-05-06 22:18 34.46921 135.90472 38041 ft 440 kts 243°
2026-05-06 22:19 34.44099 135.83931 38047 ft 437 kts 243°
2026-05-06 22:19 34.41270 135.77387 38040 ft 439 kts 243°
2026-05-06 22:20 34.38451 135.70874 38037 ft 440 kts 243°
2026-05-06 22:20 34.35594 135.64285 38043 ft 439 kts 243°
2026-05-06 22:21 34.32757 135.57756 38043 ft 438 kts 243°
2026-05-06 22:21 34.29912 135.51221 38041 ft 440 kts 243°
2026-05-06 22:22 34.27080 135.44727 38060 ft 439 kts 243°
2026-05-06 22:22 34.24234 135.38213 38054 ft 440 kts 243°
2026-05-06 22:23 34.21365 135.31661 38062 ft 446 kts 242°
2026-05-06 22:23 34.18473 135.25066 38081 ft 443 kts 242°
2026-05-06 22:24 34.15603 135.18535 38075 ft 442 kts 242°
2026-05-06 22:24 34.12701 135.11943 38053 ft 447 kts 242°
2026-05-06 22:25 34.09790 135.05345 38063 ft 444 kts 242°
2026-05-06 22:25 34.06893 134.98789 38028 ft 451 kts 242°
2026-05-06 22:26 34.03954 134.92152 38049 ft 449 kts 242°
2026-05-06 22:26 34.00994 134.85478 38053 ft 452 kts 242°
2026-05-06 22:27 33.98049 134.78853 38033 ft 448 kts 242°
2026-05-06 22:27 33.95097 134.72223 38051 ft 450 kts 242°
2026-05-06 22:28 33.92152 134.65624 38059 ft 449 kts 242°
2026-05-06 22:28 33.89179 134.58972 38061 ft 452 kts 242°
2026-05-06 22:29 33.86225 134.52376 38054 ft 447 kts 242°
2026-05-06 22:29 33.83286 134.45827 38055 ft 448 kts 242°
2026-05-06 22:30 33.80336 134.39265 38052 ft 446 kts 242°
2026-05-06 22:30 33.77369 134.32675 38069 ft 447 kts 242°
2026-05-06 22:31 33.74412 134.26123 38077 ft 450 kts 242°
2026-05-06 22:31 33.71426 134.19516 38064 ft 454 kts 242°
2026-05-06 22:32 33.68442 134.12929 38065 ft 451 kts 242°
2026-05-06 22:32 33.65452 134.06339 38073 ft 447 kts 242°
2026-05-06 22:33 33.62476 133.99791 38068 ft 450 kts 242°
2026-05-06 22:33 33.59495 133.93248 38049 ft 450 kts 242°
2026-05-06 22:34 33.56515 133.86716 38041 ft 442 kts 242°
2026-05-06 22:34 33.53560 133.80250 38042 ft 447 kts 242°
2026-05-06 22:35 33.50563 133.73706 38043 ft 451 kts 242°
2026-05-06 22:35 33.47541 133.67120 38038 ft 451 kts 242°
2026-05-06 22:36 33.44548 133.60609 38041 ft 449 kts 242°
2026-05-06 22:36 33.41519 133.54031 38040 ft 451 kts 242°
2026-05-06 22:37 33.38505 133.47499 38027 ft 449 kts 242°
2026-05-06 22:37 33.35460 133.40909 38035 ft 457 kts 242°
2026-05-06 22:38 33.32393 133.34286 38034 ft 453 kts 242°
2026-05-06 22:38 33.29332 133.27687 38042 ft 459 kts 242°
2026-05-06 22:39 33.26252 133.21062 38036 ft 458 kts 242°
2026-05-06 22:39 33.22723 133.14723 38040 ft 461 kts 237°
2026-05-06 22:40 33.19063 133.08482 38040 ft 461 kts 236°
2026-05-06 22:40 33.15346 133.02155 38040 ft 465 kts 236°
2026-05-06 22:41 33.09787 132.92709 38039 ft 464 kts 236°
2026-05-06 22:42 33.06077 132.86421 38037 ft 464 kts 236°
2026-05-06 22:42 33.02378 132.80160 38026 ft 465 kts 236°
2026-05-06 22:43 32.98649 132.73857 38014 ft 464 kts 236°
2026-05-06 22:43 32.94917 132.67560 38009 ft 464 kts 236°
2026-05-06 22:44 32.91209 132.61313 38019 ft 465 kts 236°
2026-05-06 22:44 32.87487 132.55054 38008 ft 464 kts 237°
2026-05-06 22:45 32.83767 132.48807 38014 ft 465 kts 236°
2026-05-06 22:45 32.80040 132.42561 38017 ft 463 kts 237°
2026-05-06 22:46 32.76316 132.36330 38022 ft 462 kts 237°
2026-05-06 22:46 32.72587 132.30100 38016 ft 462 kts 236°
2026-05-06 22:47 32.68867 132.23894 38016 ft 464 kts 236°
2026-05-06 22:47 32.65131 132.17671 38013 ft 463 kts 237°
2026-05-06 22:48 32.61474 132.11436 38016 ft 464 kts 237°
2026-05-06 22:48 32.57807 132.05182 38024 ft 464 kts 237°
2026-05-06 22:49 32.54128 131.98927 38008 ft 463 kts 237°
2026-05-06 22:49 32.50426 131.92644 38021 ft 469 kts 237°
2026-05-06 22:50 32.46703 131.86342 37998 ft 463 kts 237°
2026-05-06 22:50 32.43008 131.80095 38013 ft 465 kts 238°
2026-05-06 22:51 32.39321 131.73874 38016 ft 462 kts 238°
2026-05-06 22:51 32.35648 131.67685 38011 ft 462 kts 238°
2026-05-06 22:52 32.31961 131.61482 37979 ft 461 kts 238°
2026-05-06 22:52 32.28256 131.55261 38003 ft 463 kts 238°
2026-05-06 22:53 32.24532 131.49017 38022 ft 466 kts 238°
2026-05-06 22:53 32.20806 131.42783 38026 ft 463 kts 238°
2026-05-06 22:54 32.17114 131.36614 38031 ft 464 kts 238°
2026-05-06 22:54 32.13424 131.30458 38002 ft 458 kts 237°
2026-05-06 22:55 32.09721 131.24289 38037 ft 461 kts 237°
2026-05-06 22:55 32.06053 131.18190 38020 ft 457 kts 237°
2026-05-06 22:56 32.02373 131.12080 38010 ft 458 kts 237°
2026-05-06 22:56 31.98652 131.05911 38021 ft 462 kts 238°
2026-05-06 22:57 31.94957 130.99799 38011 ft 458 kts 237°
2026-05-06 22:57 31.91226 130.93633 38060 ft 464 kts 237°
2026-05-06 22:58 31.87523 130.87526 38056 ft 456 kts 237°
2026-05-06 22:58 31.83829 130.81441 38040 ft 457 kts 237°
2026-05-06 22:59 31.80139 130.75374 38043 ft 456 kts 237°
2026-05-06 22:59 31.76473 130.69353 38062 ft 456 kts 238°
2026-05-06 23:00 31.72774 130.63289 38061 ft 456 kts 237°
2026-05-06 23:00 31.69091 130.57272 38051 ft 455 kts 236°
2026-05-06 23:01 31.65214 130.51364 38040 ft 455 kts 236°
2026-05-06 23:01 31.61363 130.45537 38034 ft 457 kts 236°
2026-05-06 23:02 31.57472 130.39644 38005 ft 453 kts 236°
2026-05-06 23:02 31.53603 130.33784 38005 ft 458 kts 235°
2026-05-06 23:03 31.49728 130.27924 38017 ft 454 kts 235°
2026-05-06 23:03 31.45864 130.22084 38015 ft 456 kts 235°
2026-05-06 23:04 31.41978 130.16220 38015 ft 453 kts 235°
2026-05-06 23:04 31.38118 130.10403 38012 ft 455 kts 235°
2026-05-06 23:05 31.34228 130.04549 38011 ft 455 kts 235°
2026-05-06 23:05 31.30360 129.98738 38010 ft 452 kts 235°
2026-05-06 23:06 31.26523 129.92981 38011 ft 454 kts 235°
2026-05-06 23:06 31.22644 129.87169 38000 ft 453 kts 235°
2026-05-06 23:07 31.18762 129.81363 37996 ft 452 kts 235°
2026-05-06 23:07 31.14922 129.75627 37989 ft 451 kts 235°
2026-05-06 23:08 31.11031 129.69824 37988 ft 452 kts 235°
2026-05-06 23:08 31.07174 129.64081 37990 ft 454 kts 236°
2026-05-06 23:09 31.03276 129.58284 37990 ft 452 kts 235°
2026-05-06 23:09 30.99400 129.52528 37990 ft 452 kts 235°
2026-05-06 23:10 30.95515 129.46768 37990 ft 455 kts 236°
2026-05-06 23:10 30.91645 129.41040 37986 ft 449 kts 236°
2026-05-06 23:11 30.87772 129.35312 37984 ft 453 kts 236°
2026-05-06 23:11 30.83868 129.29549 37998 ft 453 kts 235°
2026-05-06 23:12 30.79991 129.23836 37986 ft 449 kts 235°
2026-05-06 23:12 30.76125 129.18112 37995 ft 453 kts 236°
2026-05-06 23:13 30.72341 129.12334 37987 ft 449 kts 236°
2026-05-06 23:13 30.68545 129.06545 37991 ft 451 kts 236°
2026-05-06 23:14 30.64744 129.00766 37984 ft 449 kts 236°
2026-05-06 23:14 30.60962 128.95023 37992 ft 452 kts 237°
2026-05-06 23:15 30.57164 128.89270 37989 ft 450 kts 236°
2026-05-06 23:15 30.53339 128.83482 37988 ft 450 kts 236°
2026-05-06 23:16 30.49551 128.77762 37993 ft 450 kts 236°
2026-05-06 23:16 30.45750 128.72029 37986 ft 450 kts 237°
2026-05-06 23:17 30.41940 128.66290 37989 ft 450 kts 236°
2026-05-06 23:17 30.38144 128.60582 37991 ft 448 kts 236°
2026-05-06 23:18 30.34337 128.54863 37992 ft 449 kts 236°
2026-05-06 23:18 30.30552 128.49188 37986 ft 447 kts 237°
2026-05-06 23:19 30.26749 128.43492 37989 ft 448 kts 236°
2026-05-06 23:19 30.22944 128.37804 37992 ft 448 kts 237°
2026-05-06 23:20 30.19111 128.32079 37997 ft 449 kts 236°
2026-05-06 23:20 30.15311 128.26413 37994 ft 445 kts 236°
2026-05-06 23:21 30.11536 128.20792 38002 ft 447 kts 236°
2026-05-06 23:21 30.07727 128.15129 37992 ft 444 kts 236°
2026-05-06 23:22 30.03937 128.09500 37994 ft 445 kts 236°
2026-05-06 23:22 30.00156 128.03894 37995 ft 443 kts 236°
2026-05-06 23:23 29.96363 127.98277 37990 ft 446 kts 236°
2026-05-06 23:23 29.92550 127.92641 37996 ft 443 kts 236°
2026-05-06 23:24 29.88756 127.87038 38009 ft 446 kts 236°
2026-05-06 23:24 29.84926 127.81489 38006 ft 445 kts 233°
2026-05-06 23:25 29.80880 127.76089 38009 ft 447 kts 233°
2026-05-06 23:25 29.76860 127.70725 38013 ft 444 kts 233°
2026-05-06 23:26 29.72787 127.65279 37994 ft 447 kts 233°
2026-05-06 23:26 29.68774 127.59916 38010 ft 445 kts 233°
2026-05-06 23:27 29.64770 127.54567 37999 ft 444 kts 233°
2026-05-06 23:27 29.60711 127.49148 38000 ft 445 kts 233°
2026-05-06 23:28 29.56750 127.43740 38000 ft 442 kts 236°
2026-05-06 23:28 29.52966 127.38214 37996 ft 441 kts 236°
2026-05-06 23:29 29.49160 127.32680 38013 ft 446 kts 235°
2026-05-06 23:29 29.45328 127.27129 38003 ft 443 kts 235°
2026-05-06 23:30 29.41498 127.21596 38004 ft 444 kts 235°
2026-05-06 23:30 29.37686 127.16100 38007 ft 442 kts 235°
2026-05-06 23:31 29.33814 127.10524 38002 ft 446 kts 235°
2026-05-06 23:31 29.29988 127.05027 37999 ft 442 kts 235°
2026-05-06 23:32 29.26128 126.99484 37997 ft 447 kts 235°
2026-05-06 23:32 29.22268 126.93955 38005 ft 442 kts 234°
2026-05-06 23:33 29.18423 126.88450 37967 ft 444 kts 235°
2026-05-06 23:33 29.14581 126.82960 37987 ft 441 kts 235°
2026-05-06 23:34 29.10742 126.77477 37998 ft 445 kts 235°
2026-05-06 23:34 29.06891 126.71987 37985 ft 445 kts 235°
2026-05-06 23:35 29.03012 126.66466 37993 ft 443 kts 235°
2026-05-06 23:35 28.99154 126.60980 37992 ft 446 kts 235°
2026-05-06 23:36 28.95264 126.55523 37983 ft 444 kts 233°
2026-05-06 23:36 28.91254 126.50128 37978 ft 447 kts 233°
2026-05-06 23:37 28.87260 126.44757 37981 ft 446 kts 234°
2026-05-06 23:37 28.83255 126.39369 38001 ft 445 kts 234°
2026-05-06 23:38 28.79233 126.33963 37974 ft 446 kts 233°
2026-05-06 23:38 28.75226 126.28581 38001 ft 447 kts 233°
2026-05-06 23:39 28.71220 126.23208 37981 ft 444 kts 233°
2026-05-06 23:39 28.67217 126.17844 38004 ft 447 kts 233°
2026-05-06 23:40 28.63188 126.12450 37996 ft 446 kts 234°
2026-05-06 23:40 28.59328 126.07007 37980 ft 444 kts 235°
2026-05-06 23:41 28.55464 126.01533 37984 ft 446 kts 235°
2026-05-06 23:41 28.51556 125.96018 37994 ft 446 kts 235°
2026-05-06 23:42 28.47667 125.90539 37990 ft 447 kts 235°
2026-05-06 23:42 28.43786 125.85084 37992 ft 445 kts 235°
2026-05-06 23:43 28.39897 125.79625 37990 ft 445 kts 235°
2026-05-06 23:43 28.35997 125.74159 37989 ft 446 kts 235°
2026-05-06 23:44 28.32102 125.68706 37985 ft 445 kts 235°
2026-05-06 23:44 28.28220 125.63279 37990 ft 447 kts 235°
2026-05-06 23:45 28.24281 125.57780 37991 ft 445 kts 235°
2026-05-06 23:45 28.20414 125.52389 37991 ft 446 kts 236°
2026-05-06 23:46 28.16502 125.46941 37987 ft 445 kts 236°
2026-05-06 23:46 28.12576 125.41481 37985 ft 446 kts 236°
2026-05-06 23:47 28.08686 125.36078 37988 ft 446 kts 236°
2026-05-06 23:47 28.04756 125.30627 37997 ft 445 kts 235°
2026-05-06 23:48 28.00846 125.25208 37985 ft 448 kts 235°
2026-05-06 23:48 27.96926 125.19786 37993 ft 446 kts 235°
2026-05-06 23:49 27.92991 125.14348 38006 ft 446 kts 235°
2026-05-06 23:49 27.89057 125.08918 37982 ft 447 kts 235°
2026-05-06 23:50 27.85131 125.03507 38000 ft 447 kts 235°
2026-05-06 23:50 27.79259 124.95425 37995 ft 447 kts 235°
2026-05-06 23:51 27.75320 124.90015 37984 ft 443 kts 235°
2026-05-06 23:51 27.71385 124.84613 37993 ft 447 kts 235°
2026-05-06 23:52 27.67443 124.79211 37989 ft 446 kts 235°
2026-05-06 23:52 27.63518 124.73837 37986 ft 444 kts 235°
2026-05-06 23:53 27.59589 124.68461 37982 ft 445 kts 235°
2026-05-06 23:53 27.55659 124.63085 37963 ft 446 kts 235°
2026-05-06 23:54 27.51710 124.57690 37986 ft 448 kts 235°
2026-05-06 23:54 27.47780 124.52331 37975 ft 444 kts 235°
2026-05-06 23:55 27.43814 124.46925 37965 ft 447 kts 235°
2026-05-06 23:55 27.39880 124.41573 37975 ft 447 kts 235°
2026-05-06 23:56 27.35909 124.36176 37975 ft 445 kts 235°
2026-05-06 23:56 27.31966 124.30822 37988 ft 447 kts 235°
2026-05-06 23:57 27.28006 124.25453 37997 ft 446 kts 235°
2026-05-06 23:57 27.24042 124.20086 37965 ft 445 kts 235°
2026-05-06 23:58 27.20090 124.14740 37979 ft 447 kts 235°
2026-05-06 23:58 27.16111 124.09364 38002 ft 448 kts 235°
2026-05-06 23:59 27.12153 124.04025 37989 ft 447 kts 235°
2026-05-06 23:59 27.08172 123.98666 38000 ft 448 kts 234°
2026-05-07 00:00 27.04143 123.93310 37995 ft 449 kts 234°
2026-05-07 00:00 27.00136 123.87993 37990 ft 448 kts 234°
2026-05-07 00:01 26.96119 123.82666 37999 ft 448 kts 234°
2026-05-07 00:01 26.92095 123.77335 37988 ft 449 kts 234°
2026-05-07 00:02 26.88053 123.71989 37991 ft 448 kts 235°
2026-05-07 00:02 26.84044 123.66689 37992 ft 447 kts 234°
2026-05-07 00:03 26.80027 123.61387 37976 ft 447 kts 234°
2026-05-07 00:03 26.76009 123.56088 37968 ft 447 kts 234°
2026-05-07 00:04 26.71980 123.50782 37987 ft 449 kts 234°
2026-05-07 00:04 26.67937 123.45464 37981 ft 447 kts 234°
2026-05-07 00:05 26.63932 123.40202 37977 ft 448 kts 234°
2026-05-07 00:05 26.59915 123.34933 37966 ft 446 kts 234°
2026-05-07 00:06 26.55879 123.29644 37993 ft 449 kts 234°
2026-05-07 00:06 26.51820 123.24332 37988 ft 446 kts 234°
2026-05-07 00:07 26.47787 123.19059 37988 ft 450 kts 234°
2026-05-07 00:07 26.43752 123.13792 37970 ft 448 kts 234°
2026-05-07 00:08 26.39686 123.08488 37968 ft 450 kts 234°
2026-05-07 00:08 26.35611 123.03180 37978 ft 452 kts 234°
2026-05-07 00:09 26.31543 122.97888 37960 ft 451 kts 234°
2026-05-07 00:09 26.27459 122.92584 37974 ft 452 kts 234°
2026-05-07 00:10 26.23383 122.87297 37979 ft 450 kts 234°
2026-05-07 00:10 26.19305 122.82011 37959 ft 450 kts 234°
2026-05-07 00:11 26.15228 122.76735 37988 ft 450 kts 234°
2026-05-07 00:11 26.11143 122.71454 37968 ft 451 kts 234°
2026-05-07 00:12 26.07083 122.66211 37967 ft 449 kts 234°
2026-05-07 00:12 26.03019 122.60970 37965 ft 448 kts 234°
2026-05-07 00:13 25.98938 122.55712 37950 ft 448 kts 234°
2026-05-07 00:13 25.94853 122.50453 37971 ft 453 kts 233°
2026-05-07 00:14 25.90761 122.45192 37969 ft 450 kts 233°
2026-05-07 00:14 25.86660 122.39924 37955 ft 450 kts 233°
2026-05-07 00:15 25.82575 122.34681 37974 ft 450 kts 233°
2026-05-07 00:15 25.78484 122.29439 37971 ft 450 kts 233°
2026-05-07 00:16 25.74397 122.24207 37967 ft 448 kts 233°
2026-05-07 00:16 25.70313 122.18984 37976 ft 448 kts 233°
2026-05-07 00:17 25.66216 122.13751 37967 ft 448 kts 233°
2026-05-07 00:17 25.62148 122.08560 37967 ft 450 kts 233°
2026-05-07 00:18 25.58036 122.03303 37971 ft 448 kts 233°
2026-05-07 00:18 25.53946 121.98088 37967 ft 448 kts 233°
2026-05-07 00:19 25.49860 121.92897 37969 ft 451 kts 233°
2026-05-07 00:19 25.45757 121.87692 37971 ft 449 kts 233°
2026-05-07 00:20 25.41648 121.82484 37973 ft 450 kts 233°
2026-05-07 00:20 25.37552 121.77297 37971 ft 450 kts 233°
2026-05-07 00:21 25.33421 121.72073 37961 ft 448 kts 233°
2026-05-07 00:21 25.29315 121.66885 37998 ft 450 kts 233°
2026-05-07 00:22 25.25203 121.61697 37997 ft 449 kts 233°
2026-05-07 00:22 25.21085 121.56506 37992 ft 449 kts 233°
2026-05-07 00:23 25.16998 121.51355 37994 ft 449 kts 234°
2026-05-07 00:23 25.12966 121.46121 37993 ft 447 kts 234°
2026-05-07 00:24 25.08927 121.40873 37997 ft 448 kts 234°
2026-05-07 00:24 25.04909 121.35664 37999 ft 448 kts 234°
2026-05-07 00:25 25.00879 121.30448 38003 ft 449 kts 233°
2026-05-07 00:25 24.96816 121.25195 38004 ft 451 kts 233°
2026-05-07 00:26 24.92756 121.19955 38002 ft 449 kts 234°
2026-05-07 00:26 24.88697 121.14720 37998 ft 450 kts 234°
2026-05-07 00:27 24.84625 121.09477 37998 ft 449 kts 234°
2026-05-07 00:27 24.80569 121.04255 37989 ft 450 kts 234°
2026-05-07 00:28 24.76526 120.99055 37971 ft 450 kts 234°
2026-05-07 00:28 24.72434 120.93797 37984 ft 450 kts 234°
2026-05-07 00:29 24.68370 120.88583 37985 ft 449 kts 234°
2026-05-07 00:30 24.60264 120.78195 37989 ft 451 kts 234°
2026-05-07 00:30 24.56175 120.72965 37981 ft 452 kts 234°
2026-05-07 00:31 24.51893 120.67944 38000 ft 453 kts 230°
2026-05-07 00:31 24.47503 120.62982 38020 ft 453 kts 231°
2026-05-07 00:32 24.43106 120.57994 38017 ft 453 kts 231°
2026-05-07 00:32 24.38728 120.53020 38022 ft 453 kts 231°
2026-05-07 00:33 24.34386 120.48086 38021 ft 453 kts 231°
2026-05-07 00:33 24.30004 120.43109 38020 ft 453 kts 231°
2026-05-07 00:34 24.25653 120.38171 38015 ft 453 kts 231°
2026-05-07 00:34 24.21264 120.33189 38001 ft 455 kts 231°
2026-05-07 00:35 24.16854 120.28185 37997 ft 454 kts 230°
2026-05-07 00:35 24.12487 120.23243 37976 ft 453 kts 230°
2026-05-07 00:36 24.08116 120.18299 37968 ft 454 kts 230°
2026-05-07 00:36 24.03724 120.13338 37978 ft 453 kts 230°
2026-05-07 00:37 23.99343 120.08393 37976 ft 454 kts 231°
2026-05-07 00:37 23.94956 120.03450 37972 ft 453 kts 231°
2026-05-07 00:38 23.90546 119.98486 37978 ft 454 kts 230°
2026-05-07 00:38 23.86165 119.93558 37984 ft 454 kts 231°
2026-05-07 00:39 23.81790 119.88643 37958 ft 453 kts 230°
2026-05-07 00:39 23.77372 119.83684 37979 ft 455 kts 230°
2026-05-07 00:40 23.72987 119.78767 37996 ft 455 kts 230°
2026-05-07 00:40 23.68564 119.73814 37993 ft 454 kts 230°
2026-05-07 00:41 23.64177 119.68905 37998 ft 454 kts 230°
2026-05-07 00:41 23.59837 119.63914 38001 ft 450 kts 236°
2026-05-07 00:42 23.56387 119.58299 37983 ft 447 kts 242°
2026-05-07 00:42 23.53083 119.52581 37987 ft 448 kts 242°
2026-05-07 00:43 23.49764 119.46851 37998 ft 447 kts 242°
2026-05-07 00:43 23.46443 119.41127 37987 ft 447 kts 242°
2026-05-07 00:44 23.43120 119.35407 37966 ft 448 kts 242°
2026-05-07 00:44 23.39803 119.29705 37977 ft 449 kts 241°
2026-05-07 00:45 23.36467 119.23978 37979 ft 447 kts 241°
2026-05-07 00:45 23.33146 119.18283 37976 ft 447 kts 241°
2026-05-07 00:46 23.29823 119.12592 37966 ft 446 kts 241°
2026-05-07 00:46 23.26488 119.06884 37971 ft 448 kts 241°
2026-05-07 00:47 23.23164 119.01204 37977 ft 447 kts 241°
2026-05-07 00:47 23.19832 118.95515 37963 ft 447 kts 241°
2026-05-07 00:48 23.16480 118.89798 37964 ft 447 kts 241°
2026-05-07 00:48 23.13153 118.84132 37973 ft 448 kts 241°
2026-05-07 00:49 23.09808 118.78441 37968 ft 448 kts 241°
2026-05-07 00:49 23.06467 118.72762 37974 ft 450 kts 241°
2026-05-07 00:50 23.03087 118.67024 37962 ft 447 kts 241°
2026-05-07 00:50 22.99733 118.61337 37983 ft 449 kts 241°
2026-05-07 00:51 22.96377 118.55651 37975 ft 448 kts 241°
2026-05-07 00:51 22.93037 118.50018 37982 ft 448 kts 241°
2026-05-07 00:52 22.89661 118.44346 37975 ft 447 kts 241°
2026-05-07 00:52 22.86288 118.38682 37963 ft 449 kts 241°
2026-05-07 00:53 22.82890 118.32983 37974 ft 448 kts 240°
2026-05-07 00:53 22.79519 118.27335 37984 ft 449 kts 240°
2026-05-07 00:54 22.76132 118.21666 37978 ft 451 kts 240°
2026-05-07 00:54 22.72728 118.15976 37971 ft 449 kts 240°
2026-05-07 00:55 22.69324 118.10291 37966 ft 451 kts 240°
2026-05-07 00:55 22.65915 118.04605 37985 ft 450 kts 240°
2026-05-07 00:56 22.62526 117.98957 37973 ft 450 kts 240°
2026-05-07 00:56 22.59108 117.93252 37975 ft 451 kts 241°
2026-05-07 00:57 22.55736 117.87571 37975 ft 450 kts 241°
2026-05-07 00:57 22.52337 117.81850 37968 ft 452 kts 241°
2026-05-07 00:58 22.48941 117.76142 37967 ft 451 kts 241°
2026-05-07 00:58 22.45565 117.70476 37955 ft 452 kts 241°
2026-05-07 00:59 22.40451 117.61906 37971 ft 451 kts 241°
2026-05-07 01:00 22.37051 117.56215 37966 ft 451 kts 241°
2026-05-07 01:00 22.34287 117.50204 37940 ft 446 kts 255°
2026-05-07 01:01 22.33230 117.43697 37948 ft 440 kts 270°
2026-05-07 01:01 22.33100 117.37125 37958 ft 440 kts 270°
2026-05-07 01:02 22.32985 117.30521 37956 ft 441 kts 270°
2026-05-07 01:02 22.32865 117.23946 37958 ft 434 kts 270°
2026-05-07 01:03 22.32744 117.17445 37980 ft 443 kts 270°
2026-05-07 01:03 22.32616 117.10808 37971 ft 440 kts 270°
2026-05-07 01:04 22.32486 117.04202 37976 ft 441 kts 270°
2026-05-07 01:04 22.32354 116.97645 37986 ft 439 kts 270°
2026-05-07 01:05 22.32219 116.91029 37968 ft 439 kts 270°
2026-05-07 01:05 22.32082 116.84458 37977 ft 440 kts 270°
2026-05-07 01:06 22.31941 116.77872 37965 ft 439 kts 270°
2026-05-07 01:06 22.31799 116.71328 37969 ft 440 kts 270°
2026-05-07 01:07 22.31653 116.64696 37969 ft 441 kts 270°
2026-05-07 01:07 22.31505 116.58131 37962 ft 440 kts 270°
2026-05-07 01:08 22.31355 116.51570 37970 ft 439 kts 270°
2026-05-07 01:08 22.31201 116.44980 37968 ft 439 kts 270°
2026-05-07 01:09 22.31044 116.38382 37964 ft 440 kts 270°
2026-05-07 01:09 22.30885 116.31800 37975 ft 440 kts 270°
2026-05-07 01:10 22.30725 116.25278 37334 ft 435 kts 270°
2026-05-07 01:10 22.30645 116.22045 36565 ft 436 kts 270°
2026-05-07 01:10 22.30563 116.18767 35898 ft 436 kts 270°
2026-05-07 01:10 22.30480 116.15510 35257 ft 435 kts 270°
2026-05-07 01:11 22.30398 116.12257 34603 ft 434 kts 270°
2026-05-07 01:11 22.30315 116.09031 33895 ft 434 kts 270°
2026-05-07 01:11 22.30231 116.05732 33157 ft 452 kts 271°
2026-05-07 01:11 22.30143 116.02289 32408 ft 465 kts 270°
2026-05-07 01:12 22.30052 115.98800 31632 ft 467 kts 270°
2026-05-07 01:12 22.29959 115.95300 30824 ft 468 kts 270°
2026-05-07 01:12 22.29866 115.91853 30294 ft 462 kts 270°
2026-05-07 01:12 22.29772 115.88387 29841 ft 454 kts 270°
2026-05-07 01:13 22.29679 115.85001 29339 ft 449 kts 269°
2026-05-07 01:13 22.29588 115.81673 28832 ft 443 kts 269°
2026-05-07 01:13 22.29501 115.78352 28312 ft 439 kts 269°
2026-05-07 01:13 22.29415 115.75090 27793 ft 434 kts 269°
2026-05-07 01:14 22.29329 115.71838 27271 ft 430 kts 269°
2026-05-07 01:14 22.29243 115.68622 26759 ft 425 kts 269°
2026-05-07 01:14 22.29158 115.65459 26241 ft 426 kts 269°
2026-05-07 01:14 22.29071 115.62244 25706 ft 436 kts 269°
2026-05-07 01:15 22.28981 115.58947 25156 ft 435 kts 269°
2026-05-07 01:15 22.28892 115.55730 24615 ft 431 kts 269°
2026-05-07 01:15 22.28804 115.52534 24066 ft 427 kts 269°
2026-05-07 01:15 22.28714 115.49323 23521 ft 423 kts 269°
2026-05-07 01:16 22.28626 115.46177 22989 ft 420 kts 269°
2026-05-07 01:16 22.28537 115.43055 22447 ft 418 kts 269°
2026-05-07 01:16 22.28448 115.39923 21911 ft 415 kts 269°
2026-05-07 01:16 22.28360 115.36868 21379 ft 413 kts 269°
2026-05-07 01:17 22.28270 115.33755 20833 ft 410 kts 268°
2026-05-07 01:17 22.28180 115.30729 20288 ft 407 kts 268°
2026-05-07 01:17 22.28088 115.27687 19728 ft 404 kts 268°
2026-05-07 01:17 22.27996 115.24691 19189 ft 401 kts 268°
2026-05-07 01:18 22.27903 115.21668 18627 ft 399 kts 268°
2026-05-07 01:18 22.27811 115.18723 18081 ft 396 kts 268°
2026-05-07 01:18 22.27719 115.15772 17533 ft 393 kts 268°
2026-05-07 01:18 22.27628 115.12840 16978 ft 390 kts 268°
2026-05-07 01:19 22.27536 115.09931 16417 ft 388 kts 268°
2026-05-07 01:19 22.27445 115.07050 15874 ft 385 kts 268°
2026-05-07 01:19 22.27353 115.04192 15327 ft 382 kts 268°
2026-05-07 01:19 22.27262 115.01341 14798 ft 379 kts 268°
2026-05-07 01:20 22.27171 114.98511 14255 ft 377 kts 268°
2026-05-07 01:20 22.27080 114.95707 13678 ft 375 kts 268°
2026-05-07 01:20 22.26989 114.92900 13128 ft 372 kts 268°
2026-05-07 01:20 22.26899 114.90163 12595 ft 369 kts 268°
2026-05-07 01:21 22.26808 114.87390 12028 ft 366 kts 268°
2026-05-07 01:21 22.26718 114.84673 11513 ft 363 kts 268°
2026-05-07 01:21 22.26620 114.81973 11097 ft 356 kts 265°
2026-05-07 01:21 22.26098 114.79419 10999 ft 340 kts 248°
2026-05-07 01:22 22.24978 114.77272 10965 ft 330 kts 235°
2026-05-07 01:22 22.23539 114.75358 10806 ft 326 kts 229°
2026-05-07 01:22 22.21992 114.73576 10638 ft 325 kts 226°
2026-05-07 01:22 22.20419 114.71890 10496 ft 322 kts 225°
2026-05-07 01:23 22.18847 114.70253 10354 ft 311 kts 225°
2026-05-07 01:23 22.17296 114.68653 10214 ft 300 kts 225°
2026-05-07 01:23 22.15812 114.67129 10077 ft 290 kts 225°
2026-05-07 01:23 22.14380 114.65657 9960 ft 280 kts 225°
2026-05-07 01:24 22.12984 114.64224 9836 ft 275 kts 225°
2026-05-07 01:24 22.11599 114.62803 9709 ft 274 kts 225°
2026-05-07 01:24 22.10221 114.61388 9575 ft 274 kts 225°
2026-05-07 01:24 22.08842 114.59974 9428 ft 273 kts 225°
2026-05-07 01:25 22.07470 114.58568 9301 ft 272 kts 225°
2026-05-07 01:25 22.06095 114.57159 9174 ft 272 kts 225°
2026-05-07 01:25 22.04725 114.55754 9046 ft 272 kts 225°
2026-05-07 01:25 22.03353 114.54348 8912 ft 272 kts 225°
2026-05-07 01:26 22.02179 114.52778 8768 ft 269 kts 242°
2026-05-07 01:26 22.01388 114.50942 8650 ft 271 kts 247°
2026-05-07 01:26 22.00674 114.49078 8527 ft 269 kts 248°
2026-05-07 01:26 21.99957 114.47192 8416 ft 270 kts 248°
2026-05-07 01:27 21.99249 114.45336 8287 ft 270 kts 247°
2026-05-07 01:27 21.98531 114.43458 8162 ft 269 kts 247°
2026-05-07 01:27 21.97821 114.41605 8041 ft 268 kts 247°
2026-05-07 01:27 21.97112 114.39753 7917 ft 268 kts 247°
2026-05-07 01:28 21.96402 114.37901 7793 ft 268 kts 247°
2026-05-07 01:28 21.95692 114.36049 7668 ft 267 kts 247°
2026-05-07 01:28 21.94983 114.34200 7551 ft 266 kts 247°
2026-05-07 01:28 21.94277 114.32359 7429 ft 265 kts 247°
2026-05-07 01:29 21.93572 114.30524 7306 ft 264 kts 247°
2026-05-07 01:29 21.92867 114.28686 7182 ft 264 kts 247°
2026-05-07 01:29 21.92166 114.26862 7060 ft 265 kts 247°
2026-05-07 01:29 21.91461 114.25028 6940 ft 265 kts 247°
2026-05-07 01:30 21.90756 114.23192 6822 ft 263 kts 246°
2026-05-07 01:30 21.90052 114.21359 6699 ft 263 kts 248°
2026-05-07 01:30 21.89717 114.19432 6571 ft 264 kts 273°
2026-05-07 01:30 21.90202 114.17512 6458 ft 267 kts 292°
2026-05-07 01:31 21.91051 114.15704 6336 ft 268 kts 297°
2026-05-07 01:31 21.91958 114.13940 6212 ft 267 kts 297°
2026-05-07 01:31 21.92862 114.12198 6089 ft 267 kts 298°
2026-05-07 01:31 21.93784 114.10417 5968 ft 267 kts 298°
2026-05-07 01:32 21.94685 114.08675 5848 ft 267 kts 298°
2026-05-07 01:32 21.95586 114.06930 5726 ft 266 kts 297°
2026-05-07 01:32 21.96495 114.05172 5605 ft 266 kts 297°
2026-05-07 01:32 21.97390 114.03438 5484 ft 266 kts 297°
2026-05-07 01:33 21.98283 114.01708 5363 ft 265 kts 297°
2026-05-07 01:33 21.99190 113.99949 5238 ft 265 kts 297°
2026-05-07 01:33 22.00081 113.98222 5119 ft 265 kts 297°
2026-05-07 01:33 22.00976 113.96487 4996 ft 265 kts 297°
2026-05-07 01:34 22.01871 113.94752 4873 ft 264 kts 297°
2026-05-07 01:34 22.02763 113.93020 4748 ft 263 kts 297°
2026-05-07 01:34 22.03643 113.91313 4628 ft 263 kts 297°
2026-05-07 01:34 22.04538 113.89574 4537 ft 263 kts 297°
2026-05-07 01:35 22.05418 113.87865 4425 ft 263 kts 297°
2026-05-07 01:35 22.06313 113.86126 4309 ft 263 kts 298°
2026-05-07 01:35 22.07196 113.84409 4183 ft 263 kts 298°
2026-05-07 01:35 22.08088 113.82675 4070 ft 263 kts 298°
2026-05-07 01:36 22.08978 113.80946 3942 ft 263 kts 298°
2026-05-07 01:36 22.09856 113.79237 3818 ft 262 kts 298°
2026-05-07 01:36 22.10965 113.77696 3676 ft 263 kts 322°
2026-05-07 01:36 22.12527 113.76676 3561 ft 256 kts 333°
2026-05-07 01:37 22.14114 113.75865 3453 ft 248 kts 335°
2026-05-07 01:37 22.15658 113.75101 3345 ft 240 kts 335°
2026-05-07 01:37 22.17153 113.74358 3236 ft 233 kts 335°
2026-05-07 01:37 22.18607 113.73653 3127 ft 225 kts 342°
2026-05-07 01:38 22.20110 113.73524 3007 ft 213 kts 14°
2026-05-07 01:38 22.21480 113.74037 2929 ft 204 kts 26°
2026-05-07 01:38 22.22729 113.74704 2838 ft 194 kts 30°
2026-05-07 01:38 22.23910 113.75377 2765 ft 187 kts 30°
2026-05-07 01:39 22.24989 113.76114 2579 ft 179 kts 49°
2026-05-07 01:39 22.25578 113.77241 2365 ft 171 kts 73°
2026-05-07 01:39 22.25930 113.78432 2157 ft 166 kts 74°
2026-05-07 01:39 22.26309 113.79620 1947 ft 163 kts 72°
2026-05-07 01:40 22.26677 113.80743 1746 ft 156 kts 73°
2026-05-07 01:40 22.27033 113.81844 1552 ft 156 kts 73°
2026-05-07 01:40 22.27382 113.82916 1354 ft 147 kts 73°
2026-05-07 01:40 22.27719 113.83950 1149 ft 145 kts 73°
2026-05-07 01:41 22.28051 113.84979 962 ft 142 kts 73°
2026-05-07 01:41 22.28385 113.86006 772 ft 142 kts 72°
2026-05-07 01:41 22.28705 113.87007 587 ft 142 kts 72°
2026-05-07 01:41 22.29036 113.88008 413 ft 140 kts 72°
2026-05-07 01:42 22.29359 113.89008 235 ft 140 kts 72°
2026-05-07 01:42 22.29683 113.90007 77 ft 140 kts 72°
2026-05-07 01:42 22.29987 113.90951 41 ft 120 kts 70°
2026-05-07 01:42 22.30214 113.91644 41 ft 75 kts 71°
2026-05-07 01:43 22.30342 113.92049 41 ft 38 kts 72°
2026-05-07 01:43 22.30367 113.92248 41 ft 18 kts 94°
2026-05-07 01:43 22.30348 113.92364 41 ft 9 kts 115°
2026-05-07 01:43 22.30293 113.92388 41 ft 9 kts 201°
2026-05-07 01:44 22.30250 113.92316 41 ft 13 kts 251°
2026-05-07 01:44 22.30218 113.92215 41 ft 15 kts 251°
2026-05-07 01:44 22.30181 113.92102 41 ft 15 kts 251°
2026-05-07 01:44 22.30143 113.91985 41 ft 17 kts 251°
2026-05-07 01:45 22.30103 113.91861 41 ft 18 kts 251°
2026-05-07 01:45 22.30066 113.91743 41 ft 11 kts 246°
2026-05-07 01:45 22.29997 113.91712 41 ft 11 kts 167°
2026-05-07 01:45 22.29922 113.91740 41 ft 11 kts 161°
2026-05-07 01:46 22.29853 113.91779 41 ft 11 kts 147°
2026-05-07 01:46 22.29784 113.91813 41 ft 10 kts 161°
2026-05-07 01:46 22.29720 113.91834 41 ft 7 kts 173°
2026-05-07 01:46 22.29686 113.91806 41 ft 6 kts 245°
2026-05-07 01:47 22.29677 113.91779 41 ft 2 kts 252°
2026-05-07 01:47 22.29674 113.91768 41 ft 0 kts 252°